Regional Weather Roundup
Issued by NWS Goodland, KS

Home | Current Version | Previous Version | Graphics & Text | Print | Product List | Glossary On
Versions: 1 2 3 4 5 6 7 8 9 10 11 12 13 14 15 16 17 18 19 20 21 22 23 24 25 26 27 28 29 30 31 32 33 34 35 36 37 38 39 40 41 42 43 44 45 46 47 48 49 50
000
ASUS43 KGLD 222108
RWRGLD

GOODLAND FORECAST AREA HOURLY WEATHER ROUNDUP
NATIONAL WEATHER SERVICE GOODLAND KS
200 PM MST WED NOV 22 2017

...OFFICIAL OBSERVATIONS...

CITY           SKY/WX    TMP DP  RH WIND       PRES   REMARKS
GOODLAND KS    SUNNY     71  36  27 NW16      30.11F
HILL CITY KS   SUNNY     64  33  31 SW12      30.11F
IMPERIAL NEB   SUNNY     71  38  29 NW16      30.08F
MCCOOK NEB     SUNNY     67  38  34 W6        30.07F
AKRON CO       SUNNY     66  34  30 W17       30.16F
BURLINGTON CO  CLOUDY    69  35  28 NW18G25   30.16F
LIMON CO       CLOUDY    68  30  24 NW16      30.21F
$$

...UNOFFICIAL OBSERVATIONS...

CITY           SKY/WX    TMP DP  RH WIND       PRES   REMARKS
COLBY KS       SUNNY     70  37  30 NW10      30.11F
LENORA KS        N/A     63  32  31 SW7         N/A
NORTON KS      SUNNY     64  27  24 S7        30.08
SHARON SPRINGS   N/A     71  36  28 SW6         N/A
KIT CARSON CO    N/A     68  30  24 MISG        N/A
YUMA CO        FAIR      66  36  32 W14G21    30.13F
$$




USA.gov is the U.S. government's official web portal to all federal, state and local government web resources and services.